Smyrna, TN (MQY)

CessnaPCRedbird FMX


Wings of Eagles Aviation started in Smyrna (MQY) in 1998 as a small flight school. The Smyrna Airport is the third largest airport in the state of Tennessee and the busiest general aviation airport. With its longest runway being just over 8,000 feet and having its own air traffic control tower, this is the best possible training environment for all pilots. Once you learn how to fly here, you will be confident no matter where your aviation adventures take you.

Address:
276 Doug Warpoole Rd.
Smyrna, TN 37167

Phone: (615) 355-0033

Business Hours:
Monday-Sunday 7a-10p


NOAA Weather – KMQY

Smyrna, Smyrna Airport, TN

Last Updated on Feb 13 2016, 1:56 am CST

Current Conditions: Partly Cloudy

NOAA Icon

Temp: 25°F

Wind: North at 11mph

Humidity: 57%

Windchill: 14°F

Your 5-Day Forecast at a Glance

Available data for KMQY from the past hour

metar

  • KMQY 130856Z AUTO 36009KT 10SM FEW034 M04/M11 A3046 RMK AO2 51019 T10441105 SLP329